Temperature
17 17 17 17 17 18 18 18 18 18 17 17 17 17 17 17 17 17 17 17 17 16 16 16 16 16 16 16 16 16 16 16 15 15 15 15 15 15 15 15 15 15 15
18 17 17 17 17 17 17 18 18 17 17 17 17 17 17 17 17 17 17 17 16 16 16 16 16 16 16 16 16 16 16 15 15 15 15 15 15 15 15 15 15 15 14
18 17 17 17 17 17 17 17 17 17 17 17 17 17 17 17 17 17 16 16 16 16 16 16 16 16 16 16 16 15 15 15 15 15 15 15 15 15 15 15 15 14 14
18 17 17 17 17 17 17 17 17 17 17 17 17 17 17 17 17 16 16 16 16 16 16 16 16 16 16 15 15 15 15 15 15 15 15 15 14 14 14 14 14 14 14
17 17 17 17 17 17 17 17 17 17 17 17 17 17 17 17 16 16 16 16 16 16 16 16 16 16 15 15 15 15 15 15 15 15 14 14 14 14 14 14 14 14 14
17 17 17 16 17 17 17 17 17 17 17 17 17 16 16 16 16 16 16 16 16 16 16 16 16 15 15 15 15 15 15 15 14 14 14 14 14 14 14 14 14 14 14
17 17 16 16 16 17 17 17 16 17 16 16 16 16 16 16 16 16 16 16 16 16 16 16 15 15 15 15 15 15 14 14 14 14 14 14 14 14 14 13 13 13 13
17 16 16 16 16 16 16 16 16 16 16 16 16 16 16 16 16 16 16 16 16 16 15 15 15 15 15 15 15 14 14 14 14 14 14 14 14 13 13 13 13 13 13
17 16 16 16 16 16 16 16 16 16 16 16 16 16 16 16 16 16 16 15 15 15 15 15 15 15 15 15 14 14 14 14 14 14 14 13 13 13 13 13 13 13 13
16 16 16 16 16 16 16 16 16 16 16 16 16 16 16 16 15 15 15 15 15 15 15 15 15 15 14 14 14 14 14 13 13 13 13 13 13 13 13 13 13 13 13
16 16 16 16 16 16 16 16 15 15 15 15 15 15 15 15 15 15 15 15 15 15 15 14 14 14 14 14 14 14 13 13 13 13 13 13 12 12 12 12 12 12 12
15 15 15 16 15 15 15 15 15 15 15 15 15 15 15 15 15 15 15 15 14 14 14 14 14 14 14 14 13 13 13 13 13 13 13 12 12 12 12 12 12 12 12
16 15 15 15 15 15 15 15 15 15 15 15 15 15 15 15 15 15 15 14 14 14 14 14 14 13 13 13 13 13 13 13 13 12 12 12 12 12 12 12 12 12 12
15 15 15 15 15 15 15 15 15 15 15 15 15 15 15 15 15 14 14 14 14 14 14 14 13 13 13 13 13 13 12 12 12 12 12 12 12 12 11 11 11 11 11
15 15 15 15 15 15 15 15 15 15 15 15 15 14 14 15 14 14 14 14 14 14 13 13 13 13 13 13 12 12 12 12 12 12 12 12 12 11 11 11 11 11 11
15 15 14 14 14 14 15 15 15 15 14 14 14 14 14 14 14 14 14 14 13 13 13 13 13 13 12 12 12 12 12 12 12 11 11 11 11 11 11 10 10 10 10
15 15 14 14 14 14 14 14 14 14 14 14 14 14 14 14 14 14 14 13 13 13 13 13 12 12 12 12 12 11 11 11 11 11 11 11 11 11 10 10 10 10 10
14 14 14 14 14 14 14 14 14 14 14 14 14 14 14 14 13 13 13 13 13 13 13 12 12 12 12 12 12 11 11 11 11 11 11 11 10 10 10 10 10 10 9
14 14 14 13 14 14 13 13 13 13 13 13 13 13 13 13 13 13 13 13 12 12 12 12 12 12 12 11 11 11 11 11 11 11 10 10 10 10 10 9 9 9 9
13 13 13 13 13 13 13 13 13 13 13 13 13 13 13 13 13 13 12 12 12 12 12 11 11 11 11 11 11 11 11 11 10 10 10 10 9 9 9 9 9 9 9
13 13 13 13 13 13 13 13 13 13 13 13 13 13 13 13 12 12 12 12 12 11 11 11 11 11 11 10 10 10 10 10 10 10 9 9 9 9 9 9 9 8 8
13 13 12 12 12 12 12 13 12 12 12 12 12 12 12 12 12 12 12 12 11 11 11 11 11 10 10 10 10 10 9 9 9 9 9 9 9 9 8 8 8 8 8
12 12 12 12 12 12 12 12 12 12 11 11 11 12 12 12 12 11 11 11 11 11 11 10 10 10 10 9 9 9 8 8 8 8 8 8 8 8 8 8 8 8 8
12 12 12 12 12 12 11 12 12 11 11 11 11 11 11 11 11 11 11 11 10 10 10 10 10 10 9 9 9 8 8 8 7 7 8 8 8 8 7 7 7 7 7
11 11 11 11 11 11 11 11 11 11 11 11 11 11 11 11 10 10 10 10 10 10 10 10 9 9 9 8 8 8 8 7 7 7 7 7 7 7 7 7 7 7 6
11 11 11 10 11 11 11 11 10 11 11 10 10 10 10 10 10 10 10 10 10 9 9 9 9 9 8 8 8 7 7 7 7 6 6 6 6 6 6 6 6 6 6
Wind_Speed
7 12 19 18 19 19 19 19 18 18 18 18 18 18 18 18 18 17 17 16 16 16 16 16 16 16 16 16 16 16 16 16 16 15 15 15 15 14 14 14 13 13 14
11 16 20 19 19 19 19 19 19 18 18 18 18 17 17 17 17 16 16 16 15 15 15 16 16 15 15 15 14 14 15 14 14 14 14 14 14 14 14 13 13 12 13
14 17 20 20 20 20 19 19 19 18 18 17 17 17 17 17 16 16 15 15 15 15 15 15 15 14 14 14 13 13 13 13 13 12 12 11 11 12 13 12 12 12 12
15 17 19 21 20 20 20 19 19 18 18 17 17 16 16 16 16 15 15 15 15 14 14 14 14 13 13 12 12 12 12 12 12 11 10 10 9 11 11 12 11 11 11
13 16 19 21 20 20 20 19 19 18 18 17 16 16 16 16 15 15 15 14 14 14 14 13 13 12 12 12 12 12 12 12 12 11 10 10 9 10 10 11 11 11 10
12 15 19 21 20 20 19 19 18 18 18 17 17 16 16 15 15 14 14 14 14 13 13 12 12 11 11 11 11 11 12 12 12 11 10 9 8 9 9 9 10 10 10
12 15 19 20 20 19 19 19 18 18 17 17 16 15 15 15 14 14 13 13 13 12 12 11 11 10 10 11 11 11 11 11 11 10 9 8 8 8 8 8 9 9 9
13 14 17 19 19 19 18 18 18 17 17 16 15 15 15 14 14 13 12 12 11 11 11 10 10 10 10 10 10 10 11 10 10 8 8 7 7 8 7 7 7 7 7
13 12 13 16 17 18 18 18 17 17 17 16 15 15 14 14 13 12 12 11 10 10 9 9 9 9 9 9 9 9 10 10 10 7 6 6 6 7 7 6 6 6 6
10 10 10 12 14 15 16 17 17 17 16 16 15 15 14 13 12 12 11 10 10 9 8 8 8 8 7 8 8 8 8 8 8 7 5 5 6 6 6 6 6 5 6
9 8 9 10 12 13 14 15 16 16 16 15 14 14 13 12 12 11 10 10 9 9 8 7 7 6 6 6 6 6 6 6 6 5 4 4 5 5 5 5 5 5 6
11 9 8 9 10 11 11 12 13 13 13 13 13 12 12 11 10 10 10 9 8 7 7 6 5 5 5 5 4 4 4 4 4 3 3 4 4 4 5 5 6 6 7
11 9 8 9 10 10 9 10 10 10 11 11 12 12 11 10 9 9 8 7 6 6 5 5 4 4 4 3 3 3 4 4 3 3 2 3 3 4 5 6 6 7 7
10 9 8 9 9 10 10 9 9 9 9 9 10 12 10 8 7 6 6 5 5 5 4 4 3 3 3 3 2 3 3 3 3 3 3 3 3 4 5 6 7 7 8
10 9 9 9 9 9 9 8 8 8 8 10 10 11 11 8 6 6 5 5 5 4 4 3 3 3 3 3 2 2 2 2 3 3 3 3 3 4 5 6 7 8 8
9 9 8 9 9 10 7 7 8 8 9 10 10 10 11 10 8 6 4 4 4 4 3 3 2 2 2 2 2 2 2 2 2 2 3 3 4 5 6 7 8 9 9
9 9 9 9 9 9 8 8 8 9 10 8 9 10 11 10 9 7 5 3 3 4 4 3 3 3 3 2 2 2 2 2 2 2 2 3 4 5 6 7 8 9 10
9 9 9 9 9 8 8 8 8 8 9 8 9 9 10 10 10 8 4 3 3 4 4 3 2 2 2 2 1 2 2 1 1 2 2 3 3 4 6 7 9 9 10
9 9 8 7 8 8 8 8 8 8 7 8 8 8 8 9 9 8 5 4 4 4 3 2 2 2 1 1 1 2 2 1 1 1 2 3 4 4 5 6 8 9 10
8 8 8 8 8 8 7 6 5 5 5 7 7 7 8 8 9 7 5 4 4 3 2 2 2 2 1 1 1 2 3 2 2 1 1 2 3 4 5 6 8 8 10
7 7 8 8 7 7 6 5 5 4 3 3 5 7 8 8 8 7 4 4 4 2 2 2 2 2 2 1 2 3 3 3 2 2 2 2 3 4 5 6 7 8 9
7 7 8 8 8 7 6 4 3 4 3 3 4 5 7 8 7 6 5 3 3 2 2 2 2 2 1 2 2 1 2 4 3 3 2 2 2 4 4 6 7 7 9
7 7 7 7 7 7 6 5 5 4 3 2 2 2 3 6 7 6 6 4 3 3 2 2 2 3 1 1 1 2 2 2 3 3 3 2 3 2 3 5 6 8 8
6 6 6 6 6 6 7 7 8 5 4 3 3 3 3 5 5 6 5 5 4 3 3 2 2 2 3 1 1 1 1 2 1 2 3 2 3 3 3 4 6 7 8
4 5 5 6 6 6 6 8 7 5 3 3 3 4 3 2 4 5 5 4 3 3 2 2 2 2 2 2 1 0 0 0 1 2 3 4 4 3 3 4 4 6 8
4 4 5 6 5 6 6 6 7 7 6 6 5 4 3 2 2 3 4 4 3 3 3 2 2 2 2 2 1 1 1 1 1 2 3 4 5 5 5 3 3 5 8
Wind_Direction
152 152 143 138 134 129 125 122 120 116 113 110 108 106 105 102 101 99 99 98 96 94 93 92 89 87 85 83 82 81 80 78 75 74 74 76 75 75 72 69 66 64 65
149 149 143 140 136 132 128 125 122 119 116 113 110 108 107 104 102 100 100 98 96 94 93 92 90 88 87 85 83 82 80 78 75 73 71 72 73 72 71 68 67 66 64
142 145 144 141 138 134 131 128 125 121 118 116 114 111 109 107 104 102 100 99 97 94 93 92 89 87 85 84 84 83 81 79 75 73 68 64 69 71 70 68 67 66 64
140 142 144 141 138 135 132 130 127 124 122 119 117 115 112 109 106 104 102 100 98 95 93 92 90 87 84 83 81 80 79 78 76 73 67 61 66 72 71 68 68 65 62
135 140 143 140 138 136 133 132 130 127 125 123 120 118 115 111 107 105 104 101 98 96 93 92 90 86 85 83 79 78 77 79 77 73 68 61 65 72 71 68 64 62 59
132 137 142 140 139 138 136 133 131 128 126 124 122 121 119 116 112 108 104 102 100 98 96 93 89 87 85 82 80 77 75 80 78 72 67 62 63 69 69 67 62 58 54
134 137 143 142 141 139 137 135 133 130 129 126 125 123 121 119 115 112 108 106 103 101 98 95 92 87 83 81 80 77 77 78 78 72 64 59 63 65 67 70 64 57 51
135 136 141 142 141 140 138 136 134 132 130 128 127 125 123 120 117 116 113 109 106 104 101 97 93 88 85 82 80 79 77 76 73 69 64 59 64 65 65 65 60 52 43
131 131 134 140 141 140 138 136 134 132 131 130 128 126 124 122 120 118 116 113 110 107 104 100 95 90 87 82 80 79 76 75 71 65 61 60 64 63 58 55 52 43 32
127 129 129 132 135 136 137 137 135 133 132 129 127 125 122 120 119 117 116 115 113 110 106 103 99 93 85 80 83 82 78 74 69 62 60 63 64 60 54 45 38 30 19
133 134 131 130 131 132 134 136 134 132 129 126 123 122 117 113 114 116 118 117 115 111 108 102 98 92 81 77 81 80 76 78 70 58 59 69 63 53 44 32 26 18 8
148 145 141 137 135 133 132 130 130 130 127 124 123 121 117 115 114 116 117 114 113 109 106 101 92 83 77 72 68 68 74 75 66 57 57 69 59 45 32 25 19 9 1
152 148 147 142 138 132 129 130 129 128 126 126 127 127 124 116 114 112 110 106 101 95 88 79 71 70 73 79 74 71 77 74 61 56 52 70 59 39 27 16 8 0 357
147 150 150 144 138 135 134 134 134 132 129 131 135 135 129 120 116 115 112 111 103 98 89 78 68 57 58 73 92 82 82 83 72 58 49 64 44 22 16 9 2 359 357
147 151 154 148 144 142 137 140 138 136 137 138 138 138 136 130 128 124 119 115 109 105 100 85 64 53 52 55 62 82 84 88 84 77 57 43 34 14 5 360 357 353 352
150 153 151 151 148 145 143 143 141 140 138 136 139 142 141 137 135 131 124 119 114 116 114 104 89 73 55 55 44 59 86 88 85 78 57 37 28 15 2 355 352 351 350
154 153 151 153 146 145 142 141 140 141 137 135 137 140 140 140 138 133 126 122 123 118 109 96 68 64 56 50 31 29 46 61 77 63 38 19 9 7 3 355 351 349 348
150 151 154 153 147 145 141 138 137 138 134 133 135 136 137 139 139 131 127 129 126 114 106 101 83 64 45 37 16 355 12 34 43 31 31 15 6 360 360 359 356 352 351
152 150 147 146 148 145 138 133 132 132 131 133 135 136 139 141 142 134 131 132 129 113 100 103 75 89 66 20 350 349 349 346 330 11 22 18 16 13 9 4 2 359 355
147 146 144 144 144 138 129 122 121 119 125 131 135 139 142 141 142 136 129 128 125 113 93 89 91 68 77 38 12 358 342 338 352 7 356 13 22 21 13 8 358 351 352
142 145 149 150 149 143 142 144 143 150 150 138 136 140 140 139 138 131 127 123 122 129 136 118 99 73 34 30 45 3 348 348 355 351 356 8 11 5 5 359 351 346 342
153 157 157 159 157 157 159 155 146 139 137 133 133 135 143 142 142 140 133 131 125 124 117 112 107 91 33 40 93 69 355 343 342 340 347 359 355 355 350 345 344 344 340
159 165 166 165 162 159 147 128 113 92 86 99 131 147 145 147 146 144 142 136 129 132 148 149 141 133 133 13 62 129 138 246 299 322 338 343 341 344 326 332 334 336 335
170 167 164 160 159 156 148 148 150 154 161 180 171 159 139 144 145 147 144 140 139 135 147 160 134 138 138 143 354 32 174 179 203 304 317 324 328 321 315 329 331 329 330
161 161 161 154 153 153 153 156 156 153 149 139 138 140 145 136 142 145 145 140 136 132 145 144 133 129 144 161 182 203 46 10 190 208 284 313 322 304 304 307 315 319 323
125 136 148 152 152 154 155 157 160 156 149 147 153 158 160 155 135 138 141 136 136 133 145 147 140 139 146 156 176 180 181 195 215 211 248 292 301 301 307 304 308 311 316
Height
1528 1531 1533 1536 1537 1539 1541 1542 1543 1544 1546 1547 1548 1548 1549 1550 1551 1551 1552 1552 1552 1553 1553 1553 1554 1554 1554 1554 1554 1553 1553 1553 1553 1552 1552 1552 1551 1551 1550 1550 1549 1549 1548
1527 1530 1533 1536 1538 1540 1541 1543 1544 1545 1547 1548 1549 1550 1551 1551 1552 1553 1553 1553 1553 1554 1554 1554 1555 1555 1555 1555 1555 1555 1554 1554 1554 1554 1553 1553 1552 1552 1551 1551 1550 1550 1549
1527 1530 1533 1536 1538 1540 1542 1544 1545 1546 1548 1549 1550 1551 1552 1552 1553 1554 1554 1554 1555 1555 1555 1556 1556 1556 1556 1556 1556 1556 1555 1555 1555 1555 1554 1554 1554 1553 1553 1552 1551 1551 1550
1528 1530 1533 1536 1539 1541 1543 1544 1546 1547 1549 1550 1551 1552 1553 1554 1554 1555 1555 1555 1556 1556 1557 1557 1557 1557 1557 1557 1557 1556 1556 1556 1556 1556 1555 1555 1555 1554 1554 1553 1552 1551 1550
1528 1531 1534 1537 1539 1541 1543 1545 1547 1548 1550 1551 1552 1553 1554 1555 1555 1556 1556 1557 1557 1557 1558 1558 1558 1558 1558 1557 1557 1557 1557 1557 1557 1557 1556 1556 1555 1555 1554 1554 1553 1552 1551
1529 1532 1535 1537 1540 1542 1544 1546 1547 1549 1550 1552 1553 1554 1555 1555 1556 1557 1557 1558 1558 1558 1558 1558 1559 1559 1558 1558 1558 1558 1558 1557 1557 1557 1557 1556 1556 1556 1555 1554 1553 1552 1551
1529 1532 1535 1538 1540 1542 1544 1546 1548 1550 1551 1552 1554 1555 1556 1556 1557 1557 1558 1558 1559 1559 1559 1559 1559 1559 1559 1559 1558 1558 1558 1558 1558 1558 1557 1557 1556 1556 1555 1554 1553 1552 1551
1529 1533 1536 1538 1541 1543 1545 1547 1548 1550 1552 1553 1554 1555 1556 1557 1558 1558 1559 1559 1559 1559 1559 1559 1559 1559 1559 1559 1559 1559 1559 1558 1558 1558 1557 1557 1556 1556 1555 1554 1553 1552 1551
1530 1533 1536 1538 1541 1543 1545 1547 1549 1551 1552 1553 1555 1556 1557 1557 1558 1559 1559 1559 1560 1560 1560 1560 1560 1560 1559 1559 1559 1559 1559 1558 1558 1558 1557 1557 1556 1556 1555 1554 1553 1552 1551
1530 1533 1535 1538 1541 1543 1545 1547 1549 1551 1552 1554 1555 1556 1557 1558 1558 1559 1559 1560 1560 1560 1560 1560 1560 1560 1560 1560 1559 1559 1559 1558 1558 1558 1557 1557 1556 1555 1555 1554 1553 1552 1551
1530 1533 1535 1537 1540 1543 1545 1547 1549 1551 1552 1554 1555 1556 1557 1558 1558 1559 1559 1560 1560 1560 1560 1560 1560 1560 1560 1560 1559 1559 1559 1558 1558 1558 1557 1556 1556 1555 1554 1553 1553 1552 1550
1528 1531 1534 1537 1539 1542 1544 1546 1548 1550 1552 1553 1555 1556 1557 1558 1558 1559 1559 1560 1560 1560 1560 1560 1560 1560 1560 1560 1559 1559 1559 1558 1558 1558 1557 1556 1556 1555 1554 1553 1552 1551 1550
1527 1530 1533 1536 1538 1541 1543 1545 1547 1549 1551 1553 1554 1555 1556 1557 1558 1558 1559 1559 1560 1560 1560 1560 1560 1560 1560 1560 1559 1559 1559 1558 1558 1557 1557 1556 1555 1555 1554 1552 1551 1550 1549
1527 1529 1532 1535 1537 1540 1542 1544 1547 1548 1550 1552 1553 1554 1555 1556 1557 1558 1558 1559 1559 1559 1559 1559 1559 1559 1559 1559 1559 1559 1558 1558 1557 1557 1556 1556 1555 1554 1553 1552 1550 1549 1547
1526 1529 1531 1534 1536 1539 1541 1543 1545 1547 1549 1551 1552 1553 1555 1556 1556 1557 1558 1558 1558 1559 1559 1559 1559 1559 1559 1559 1558 1558 1558 1557 1557 1556 1556 1555 1554 1553 1552 1550 1549 1548 1546
1525 1527 1530 1533 1535 1538 1540 1542 1544 1546 1548 1550 1551 1552 1554 1555 1556 1556 1557 1557 1557 1558 1558 1558 1558 1558 1558 1558 1558 1557 1557 1557 1556 1555 1555 1554 1552 1551 1550 1549 1547 1546 1544
1523 1526 1529 1531 1534 1536 1539 1541 1543 1545 1547 1548 1550 1551 1552 1554 1554 1555 1556 1556 1556 1557 1557 1557 1557 1557 1557 1557 1557 1556 1556 1556 1555 1554 1553 1552 1551 1550 1548 1547 1545 1544 1542
1522 1524 1527 1529 1532 1535 1537 1539 1541 1543 1545 1547 1548 1550 1551 1552 1553 1554 1554 1555 1555 1555 1555 1556 1556 1556 1556 1555 1555 1555 1555 1554 1554 1553 1552 1551 1549 1548 1546 1545 1543 1542 1540
1520 1522 1525 1527 1530 1533 1535 1537 1539 1541 1543 1545 1547 1548 1549 1551 1552 1552 1553 1553 1554 1554 1554 1554 1554 1554 1554 1554 1553 1553 1553 1552 1552 1551 1550 1549 1547 1546 1545 1543 1541 1540 1538
1518 1521 1523 1526 1528 1531 1533 1535 1537 1539 1541 1543 1545 1546 1548 1549 1550 1551 1551 1551 1552 1552 1552 1552 1552 1552 1552 1552 1551 1551 1551 1550 1550 1549 1548 1547 1546 1544 1543 1541 1539 1537 1535
1516 1519 1521 1523 1526 1528 1530 1532 1534 1536 1539 1541 1542 1544 1546 1547 1548 1548 1549 1549 1550 1550 1550 1551 1550 1550 1550 1550 1550 1549 1548 1548 1547 1547 1546 1545 1544 1542 1541 1539 1537 1535 1532
1514 1516 1519 1521 1523 1526 1528 1531 1533 1534 1536 1538 1540 1542 1543 1544 1546 1546 1547 1547 1548 1548 1548 1548 1548 1548 1548 1548 1548 1546 1546 1546 1545 1545 1544 1543 1541 1540 1539 1537 1534 1532 1530
1511 1514 1516 1518 1521 1523 1526 1528 1530 1532 1534 1536 1537 1539 1541 1542 1543 1544 1545 1545 1545 1546 1546 1546 1546 1546 1546 1546 1546 1546 1544 1543 1542 1542 1541 1540 1539 1537 1536 1534 1532 1529 1527
1509 1511 1514 1516 1519 1521 1523 1525 1527 1529 1530 1532 1535 1537 1539 1540 1541 1542 1543 1543 1543 1544 1544 1543 1543 1543 1544 1543 1544 1543 1543 1542 1541 1538 1538 1537 1536 1534 1533 1531 1529 1527 1524
1506 1509 1512 1514 1516 1519 1521 1523 1525 1527 1529 1531 1533 1534 1536 1537 1539 1540 1540 1541 1541 1541 1541 1541 1541 1541 1541 1541 1541 1541 1540 1540 1539 1537 1534 1533 1532 1531 1530 1528 1526 1524 1521
1504 1507 1509 1511 1514 1516 1518 1521 1523 1525 1527 1528 1530 1531 1533 1534 1536 1537 1538 1538 1539 1539 1539 1539 1539 1539 1539 1539 1538 1538 1538 1537 1536 1535 1532 1530 1528 1527 1526 1525 1523 1521 1518